Weather History for KNBT - December, 2013

Change the Weather History Date:

Sunday, December 22, 2013

  Actual Average (KMRH) Record (KMRH)
Temperature  
Mean Temperature 74 °F -  
Max Temperature 79 °F 57 °F 75 °F (1990)
Min Temperature 69 °F 37 °F 18 °F (1985)
Cooling Degree Days 9    
Growing Degree Days 24 (Base 50)    
Moisture  
Dew Point 68 °F    
Average Humidity 86    
Maximum Humidity 97    
Minimum Humidity 69    
Precipitation  
Precipitation 0.00 in - - ()
Sea Level Pressure  
Sea Level Pressure 30.16 in    
Wind  
Wind Speed 13 mph (SSW)    
Max Wind Speed 23 mph    
Max Gust Speed 34 mph    
Averages and records for this station are not official NWS values.
T = Trace of Precipitation, MM = Missing Value Source: NWS Daily Summary

Daily Weather History Graph

Daily Weather History Graph

Search for Another Location

Airport or City:

Trip Planner

Search our weather history database for the weather conditions in past years. The results will help you decide how hot, cold, wet, or windy it might be!

Date:

Astronomy

Dec. 22, 2013 Rise Set
Actual Time 7:10 AM EST 4:58 PM EST
Civil Twilight 6:42 AM EST 5:26 PM EST
Nautical Twilight 6:10 AM EST 5:58 PM EST
Astronomical Twilight 5:39 AM EST 6:29 PM EST
Moon 9:58 PM EST (12/22) 10:15 AM EST (12/22)
Length of Visible Light 10h 44m
Length of Day
9h 48m
Waning Gibbous, 77% of the Moon is Illuminated
Dec 22
Waning Gibbous
Dec 25
Last Quarter
Jan 1
New
Jan 7
First Quarter
Jan 15
Full

Hourly Weather History & Observations

Time (EST) Temp. Dew Point Humidity Pressure Visibility Wind Dir Wind Speed Gust Speed Precip Events Conditions
12:56 AM 70.0 °F 66.9 °F 90% 30.15 in - South 10.4 mph - N/A   Partly Cloudy
2:56 AM 69.1 °F 66.9 °F 93% 30.14 in - South 9.2 mph - N/A   Clear
3:56 AM 70.0 °F 66.9 °F 90% 30.14 in - SSW 15.0 mph - N/A   Clear
4:56 AM 70.0 °F 66.0 °F 87% 30.13 in - SSW 13.8 mph - N/A   Clear
5:56 AM 69.1 °F 66.0 °F 90% 30.14 in - SSW 12.7 mph - N/A   Clear
6:56 AM 70.0 °F 66.0 °F 87% 30.15 in - SSW 13.8 mph - N/A   Clear
7:56 AM 72.0 °F 66.9 °F 84% 30.16 in - SSW 16.1 mph - N/A   Clear
8:56 AM 73.9 °F 68.0 °F 82% 30.17 in - SSW 17.3 mph - N/A   Clear
9:56 AM 75.9 °F 68.0 °F 76% 30.18 in - SSW 17.3 mph 27.6 mph N/A   Clear
10:56 AM 78.1 °F 68.0 °F 71% 30.17 in - SSW 20.7 mph 31.1 mph N/A   Clear
11:56 AM 79.0 °F 68.0 °F 69% 30.16 in - SSW 21.9 mph 29.9 mph N/A   Scattered Clouds
12:13 PM 78.1 °F 68.0 °F 71% 30.13 in - SW 21.9 mph 31.1 mph N/A   Mostly Cloudy
12:23 PM 79.0 °F 68.0 °F 69% 30.13 in - SW 23.0 mph 33.4 mph N/A   Scattered Clouds
12:56 PM 79.0 °F 68.0 °F 69% 30.14 in - SW 19.6 mph 34.5 mph N/A   Scattered Clouds
1:56 PM 78.1 °F 68.0 °F 71% 30.13 in - SSW 18.4 mph 28.8 mph N/A   Scattered Clouds
2:56 PM 78.1 °F 69.1 °F 74% 30.13 in - SW 18.4 mph 28.8 mph N/A   Clear
3:56 PM 75.9 °F 68.0 °F 76% 30.14 in - SW 15.0 mph 26.5 mph N/A   Mostly Cloudy
4:56 PM 71.1 °F 69.1 °F 93% 30.15 in - South 11.5 mph - N/A Rain Light Rain
5:56 PM 71.1 °F 69.1 °F 93% 30.17 in - South 11.5 mph - N/A   Scattered Clouds
6:56 PM 69.1 °F 68.0 °F 96% 30.18 in - SSW 17.3 mph 27.6 mph N/A Rain Heavy Rain
7:56 PM 70.0 °F 68.0 °F 93% 30.18 in - South 9.2 mph - N/A   Scattered Clouds
8:56 PM 70.0 °F 69.1 °F 97% 30.18 in - SSW 9.2 mph - N/A Rain Light Rain
9:26 PM 71.1 °F 70.0 °F 96% 30.16 in - SW 11.5 mph - N/A Rain Light Rain
9:37 PM 71.1 °F 69.1 °F 93% 30.17 in - SSW 8.1 mph - N/A Rain Rain
9:56 PM 71.1 °F 70.0 °F 96% 30.18 in - South 6.9 mph - N/A   Overcast
10:06 PM 71.1 °F 69.1 °F 93% 30.16 in - South 8.1 mph - N/A   Overcast
10:56 PM 70.0 °F 69.1 °F 97% 30.18 in - SW 6.9 mph - N/A Rain Light Rain
11:03 PM 70.0 °F 69.1 °F 97% 30.17 in - South 5.8 mph - N/A Rain Light Rain
11:11 PM 70.0 °F 69.1 °F 97% 30.16 in - SSW 5.8 mph - N/A Rain Light Rain
11:21 PM 71.1 °F 69.1 °F 93% 30.16 in - SSW 9.2 mph - N/A   Overcast
11:56 PM 71.1 °F 69.1 °F 93% 30.17 in - South 11.5 mph - N/A   Overcast